• Join FlightAware (Why Join?)
  • Login
  • US Flag 
03:03PM EST


 

Airport Tracker/Info


-or-


 

Live Flight TrackerFlight Track Log ✈ N796PG ✈ 12-Jul-2013 ✈ KPDK - KPDK

Flight Track Log - Related Links

Times and Time Zones

All times are in EDT time to prevent confusion due to time zone crossing. See the N796PG flight status page for this flight to view local times or setup timezone preferences in your user account.

Time Position Orientation Groundspeed Altitude Reporting Facility
EDT Latitude Longitude Course Direction KTS MPH feet Rate Location/Type
02:22PM 33.9000 -84.2667 40° Northeast 122 140 2,300  Level Atlanta TRACON
02:23PM 33.9333 -84.2333 40° Northeast 121 139 3,100 842 Climbing Atlanta TRACON
02:24PM 33.9500 -84.2167 40° Northeast 133 153 3,900 700 Climbing Atlanta TRACON
02:25PM 33.9833 -84.1833 40° Northeast 139 160 4,500 550 Climbing Atlanta TRACON
02:26PM 34.0000 -84.1333 68° East 140 161 5,000 250 Climbing Atlanta TRACON
02:27PM 34.0333 -84.1000 40° Northeast 163 188 5,000  Level Atlanta TRACON
02:28PM 34.0667 -84.0500 51° Northeast 166 191 5,000  Level Atlanta TRACON
02:29PM 34.0833 -84.0167 59° Northeast 167 192 5,000  Level Atlanta TRACON
02:31PM 34.1553 -83.9233 47° Northeast 182 209 5,000  Level Atlanta Center
02:32PM 34.1825 -83.8806 52° Northeast 168 193 5,000  Level Atlanta Center
02:33PM 34.2136 -83.8378 49° Northeast 163 188 5,000  Level Atlanta Center
02:34PM 34.2406 -83.8025 47° Northeast 158 182 5,000  Level Atlanta Center
02:35PM 34.2697 -83.7622 49° Northeast 158 182 5,000  Level Atlanta Center
02:36PM 34.2969 -83.7169 54° Northeast 158 182 5,000  Level Atlanta Center
02:37PM 34.3281 -83.6767 47° Northeast 158 182 5,000  Level Atlanta Center
02:38PM 34.3572 -83.6336 51° Northeast 163 188 5,000  Level Atlanta Center
02:39PM 34.3861 -83.5933 49° Northeast 158 182 5,000  Level Atlanta Center
02:40PM 34.4153 -83.5478 52° Northeast 158 182 5,000  Level Atlanta Center
02:41PM 34.4486 -83.5147 39° Northeast 158 182 5,000  Level Atlanta Center
02:42PM 34.4839 -83.4794 39° Northeast 152 175 5,000  Level Atlanta Center
02:43PM 34.5108 -83.4439 47° Northeast 152 175 5,000  Level Atlanta Center
02:44PM 34.5419 -83.4008 49° Northeast 152 175 5,000  Level Atlanta Center
02:45PM 34.5792 -83.3728 32° Northeast 152 175 5,000  Level Atlanta Center
02:46PM 34.6167 -83.3497 27° Northeast 147 169 5,000  Level Atlanta Center
02:47PM 34.6519 -83.3242 31° Northeast 147 169 5,000  Level Atlanta Center
02:48PM 34.6917 -83.3011 26° Northeast 147 169 5,000  Level Atlanta Center
02:49PM 34.7311 -83.2831 21° North 147 169 5,000  Level Atlanta Center
02:50PM 34.7558 -83.2475 50° Northeast 147 169 5,000  Level Atlanta Center
02:51PM 34.7808 -83.2372 19° North 121 139 5,000 -300 Level Atlanta Center
02:52PM 34.7581 -83.2728 232° Southwest 38 44 4,400 -650 Descending Atlanta Center
02:53PM 34.7247 -83.2781 187° South 76 87 3,700 -450 Descending Atlanta Center
02:54PM 34.7042 -83.2958 215° Southwest 86 99 3,500 650 Descending Atlanta Center
02:55PM 34.6833 -83.3086 207° Southwest 86 99 5,000 750 Climbing Atlanta Center
02:56PM 34.6625 -83.3217 207° Southwest 86 99 5,000  Level Atlanta Center
02:57PM 34.6583 -83.3242 206° Southwest 86 99 5,000 -567 Level Atlanta Center
02:59PM 34.5767 -83.2667 150° Southeast 174 200 3,300 -333 Descending Atlanta Center
03:00PM 34.6036 -83.2414 38° Northeast 120 138 4,000 800 Climbing Atlanta Center
03:01PM 34.6142 -83.2842 287° West 60 69 4,900 550 Climbing Atlanta Center
03:02PM 34.5703 -83.2844 180° South 71 82 5,100 100 Climbing Atlanta Center
03:03PM 34.5286 -83.2850 181° South 114 131 5,100 -50 Level Atlanta Center
03:04PM 34.4808 -83.2928 188° South 147 169 5,000 -50 Descending Atlanta Center
03:05PM 34.4328 -83.2883 176° South 167 192 5,000 -50 Level Atlanta Center
03:06PM 34.3889 -83.2986 191° South 172 198 4,900  Descending Atlanta Center
03:07PM 34.3431 -83.3067 188° South 172 198 5,000 50 Climbing Atlanta Center
03:08PM 34.2992 -83.3119 186° South 165 190 5,000 -50 Level Atlanta Center
03:09PM 34.2514 -83.3150 183° South 165 190 4,900  Descending Atlanta Center
03:11PM 34.1333 -83.3167 181° South 167 192 5,000  Climbing Atlanta TRACON
03:12PM 34.1000 -83.3167 180° South 172 198 4,900 -53 Descending Atlanta TRACON
03:13PM 34.0500 -83.3167 180° South 169 194 4,900 50 Level Atlanta TRACON
03:14PM 34.0000 -83.3167 180° South 170 196 5,000 48 Climbing Atlanta TRACON
03:15PM 33.9500 -83.3333 195° South 175 201 5,000  Level Atlanta TRACON
03:16PM 33.9500 -83.3833 270° West 172 198 5,000  Level Atlanta TRACON
03:17PM 33.9333 -83.4500 253° West 173 199 5,000  Level Atlanta TRACON
03:18PM 33.9333 -83.5000 270° West 171 197 5,000  Level Atlanta TRACON
03:19PM 33.9333 -83.5667 270° West 171 197 5,000  Level Atlanta TRACON
03:20PM 33.9333 -83.6167 270° West 167 192 5,000  Level Atlanta TRACON
03:21PM 33.9167 -83.6667 248° West 167 192 5,000  Level Atlanta TRACON
03:22PM 33.9167 -83.7167 270° West 164 189 5,000  Level Atlanta TRACON
03:23PM 33.9167 -83.7667 270° West 161 185 5,000  Level Atlanta TRACON
03:24PM 33.9167 -83.8333 270° West 162 186 5,000 -50 Level Atlanta TRACON
03:25PM 33.9000 -83.8833 248° West 167 192 4,900 -350 Descending Atlanta TRACON
03:26PM 33.9000 -83.9333 270° West 178 205 4,300 -450 Descending Atlanta TRACON
03:27PM 33.9000 -84.0000 270° West 168 193 4,000 -350 Descending Atlanta TRACON
03:28PM 33.9000 -84.0500 270° West 208 239 3,600 -450 Descending Atlanta TRACON
03:29PM 33.8833 -84.1000 248° West 171 197 3,100 -300 Descending Atlanta TRACON
03:30PM 33.8667 -84.1500 248° West 161 185 3,000 -50 Descending Atlanta TRACON
03:31PM 33.8500 -84.2000 248° West 154 177 3,000 -150 Level Atlanta TRACON
03:32PM 33.8500 -84.2500 270° West 149 171 2,700 -550 Descending Atlanta TRACON
03:33PM 33.8500 -84.2833 270° West 99 114 1,900 -800 Descending Atlanta TRACON
03:35PM 33.8667 -84.3000 239° Southwest  Level FlightAware Approximate
03:42PM 33.8756 -84.3020 239° Southwest  Level Estimated
03:43PM 33.8756 -84.3020 239° Southwest  Level Estimated
03:44PM 33.8756 -84.3020 239° Southwest  Level Estimated
03:45PM 33.8756 -84.3020 239° Southwest  Level Estimated
03:46PM 33.8756 -84.3020 239° Southwest  Level Estimated
03:47PM 33.8756 -84.3020 239° Southwest  Level Estimated
03:48PM 33.8756 -84.3020 239° Southwest  Level Estimated
03:49PM 33.8756 -84.3020 239° Southwest  Level Estimated
03:50PM 33.8756 -84.3020 239° Southwest  Level Estimated
03:51PM 33.8756 -84.3020 239° Southwest  Level Estimated